User: anonymous   Login
Location: Unspecified
(0.0000°N, 0.0000°E)
Time: 22:32:41
(UTC+00:00)
Language:

MOZHAYETS 4 - Orbit

View from above orbital plane
View from above orbital plane
View from above satellite
View from above satellite

Ground track
Ground track

The orbit data is extracted from the following two-line orbital elements,

1 27939U 03042A   18175.54534904  .00000083  00000-0  23327-4 0  9997
2 27939  97.9914 314.4896 0014196 122.4595 306.9060 14.66695202787899
Epoch (UTC): 24 June 2018 13:05:18
Eccentricity: 0.0014196
inclination: 97.9914°
perigee height: 661 km
apogee height: 681 km
right ascension of ascending node: 314.4896°
argument of perigee: 122.4595°
revolutions per day: 14.66695202
mean anomaly at epoch: 306.9060°
orbit number at epoch: 78789

The dashed part of the orbit path shows where the satellite is in the earth's shadow,  

DLR